Home   Weather   Durham   Past weeks

Flag for USA Past Weather in Durham, North Carolina, USA — Yesterday and Last 2 Weeks

57 °F

Passing clouds.

Feels Like: 57 °F
Forecast: 52 / 70 °F
Wind: 5 mph from West

Location: Raleigh-Durham International Airport

Current Time: Oct 28, 2016 at 8:10:38 AM

Latest Report: Oct 28, 2016 at 6:51 AM

Visibility: 10 mi

Pressure: 30.19 "Hg

Humidity: 96%

Dew Point: 56 °F

Location of DurhamLocation

Past Weather in Durham — Graph


Durham Temperature Yesterday

Maximum temperature yesterday: 74 °F (at 12:51 PM)
Minimum temperature yesterday: 47 °F (at 4:51 AM)
Average temperature yesterday: 62 °F

High & Low Weather Summary for the Past Weeks

High87 °F (Oct 19, 2:51 PM)100% (Oct 13, 7:51 AM)30.44 "Hg (Oct 13, 7:51 AM)
Low39 °F (Oct 26, 6:51 AM)32% (Oct 24, 3:51 PM)29.62 "Hg (Oct 21, 2:51 PM)
Average63 °F72%30.13 "Hg
* Reported Oct 13 6:51 AM — Oct 28 6:51 AM, Durham, Weather by CustomWeather, © 2016

Note: Actual official high and low records may vary slightly from our data, if they occured in-between our weather recording intervals... More about our weather records


Durham Weather History for the Previous 24 Hours

Scroll right to see more
Time TempWeatherWind HumidityBarometerVisibility
6:51 AM
Fri, Oct 28
57 °FPassing clouds.5 mph96%30.19 "Hg10 mi
5:51 AM59 °FPassing clouds.No wind96%30.18 "Hg10 mi
4:51 AM59 °FPassing clouds.6 mph96%30.16 "Hg10 mi
3:51 AM60 °FPassing clouds.5 mph93%30.15 "Hg10 mi
2:51 AM61 °FPassing clouds.5 mph90%30.15 "Hg10 mi
1:51 AM63 °FPassing clouds.10 mph87%30.17 "Hg10 mi
12:51 AM61 °FPassing clouds.5 mph93%30.18 "Hg10 mi
11:51 PM
Thu, Oct 27
64 °FPassing clouds.6 mph87%30.18 "Hg10 mi
10:51 PM64 °FPassing clouds.5 mph90%30.19 "Hg10 mi
9:51 PM64 °FHeavy rain. Fog.6 mph97%30.19 "Hg3 mi
8:51 PM68 °FPartly cloudy.9 mph76%30.19 "Hg10 mi
7:51 PM69 °FPassing clouds.8 mph73%30.18 "Hg10 mi
6:51 PM70 °FPartly cloudy.8 mph68%30.18 "Hg10 mi
5:51 PM72 °FPartly sunny.10 mph64%30.18 "Hg10 mi
4:51 PM74 °FBroken clouds.12 mph60%30.19 "Hg10 mi
3:51 PM74 °FBroken clouds.12 mph60%30.20 "Hg10 mi
2:51 PM74 °FBroken clouds.16 mph57%30.21 "Hg10 mi
1:51 PM72 °FBroken clouds.15 mph64%30.25 "Hg10 mi
12:51 PM74 °FBroken clouds.17 mph60%30.28 "Hg10 mi
11:51 AM71 °FBroken clouds.12 mph63%30.30 "Hg10 mi
10:51 AM67 °FPartly sunny.12 mph71%30.32 "Hg10 mi
9:51 AM62 °FPartly sunny.7 mph80%30.33 "Hg10 mi
8:51 AM55 °FMostly cloudy.No wind90%30.34 "Hg10 mi
Weather by CustomWeather, © 2016

See weather overviewHow to use our weather pages